ROMMA est une association bénévole à but non lucratif. Votre soutien est indispensable : ADHERER à ROMMA ou FAIRE un DON

Recoubeau - (26, Drôme)

Diois (510 m)   Longitude: 5° 24' E   Latitude: 44° 39' N Station partenaire n°64
 

Détail journalier du     <<     >>

Température Precipitation Humidité Pression Vent Dir Rafale Dir. rafale
Heure (°C) (mm) (%) (hPa) (km/h) (km/h)
01:00 8.007310232O13O
02:00 5.808410233O13OSO
03:00 4.0090102200
04:00 5.108810221N15NO
05:00 8.2070102210NO31NO
06:00 7.4076102211NNO24NO
07:00 6.80.274102212NO34ONO
08:00 7.3066102212NO31NO
09:00 7.8067102212NNO31NNO
10:00 9.0064102216NNO39NO
11:00 10.00.258102219NNO40NNO
12:00 8.9067102216ONO32ONO
13:00 10.5062102216NO34NO
14:00 11.3054102117NNO34N
15:00 10.8059102117NNO35NO
16:00 10.1060102119NNO39NNO
17:00 10.1058102019NNO35N
18:00 9.3058102118NO42NO
19:00 9.0059102014NO34NNO
20:00 8.9059102012NO31NNO
21:00 8.1063102111NO31NO
22:00 8.106210218ONO21ONO
23:00 7.906310219ONO19NNO
minuit 7.4067102011NO31O

Graphique du 28-04-2019

 

Serveur OMMA